Hourly Weather Roundup
Issued by NWS Central Illinois

Home | Current Version | Previous Version | Text Only | Print | Product List | Glossary On
Versions: 1 2 3 4 5 6 7 8 9 10 11 12 13 14 15 16 17 18 19 20 21 22 23 24 25 26 27 28 29 30 31 32 33 34 35 36 37 38 39 40 41 42 43 44 45 46 47 48 49 50
000
NZUS43 KILX 270010
HWRILX

AREA WEATHER ROUNDUP
NATIONAL WEATHER SERVICE, LINCOLN IL
600 PM CST THU FEB 26 2015


CITY           SKY/WX    TMP DP  RH WIND       PRES   REMARKS
BLOOMINGTON    PTCLDY    11   4  73 NW12      30.35R WCI  -3
6HR MIN TEMP:  12; 6HR MAX TEMP:  19; 6HR PCP: TRACE;

CHAMPAIGN      CLOUDY    16  10  77 N9        30.32R WCI   4
6HR MIN TEMP:  16; 6HR MAX TEMP:  22; 6HR PCP: TRACE;

DECATUR        CLOUDY    17  12  80 N10       30.34R HAZE    WCI   5
6HR MIN TEMP:  17; 6HR MAX TEMP:  22; 6HR PCP: TRACE;

FLORA          LGT SNOW  21  17  82 N10       30.34R WCI  10
6HR MIN TEMP:  21; 6HR MAX TEMP:  26;

GALESBURG      CLEAR      7  -1  69 NW6       30.40R WCI  -3
JACKSONVILLE   PTCLDY    14   3  63 NW12      30.40R WCI   0
6HR MIN TEMP:  14; 6HR MAX TEMP:  21;

LACON          CLOUDY    11   3  68 N12       30.39R WCI  -3
6HR MIN TEMP:  11; 6HR MAX TEMP:  18;

LAWRENCEVILLE  PTCLDY    22  12  65 NW16      30.32R WCI   8
6HR MIN TEMP:  22; 6HR MAX TEMP:  28; 6HR PCP: TRACE;

LITCHFIELD     CLOUDY    16   9  75 NW15      30.36R WCI   1
$$


CITY           SKY/WX    TMP DP  RH WIND       PRES   REMARKS
LINCOLN        FLURRIES  16   9  72 N7        30.40R WCI   7
6HR MIN TEMP:  16; 6HR MAX TEMP:  23;

MACOMB         CLEAR      6   0  75 NW12      30.44R WCI -10
MATTOON        CLOUDY    17   9  70 N10       30.31R WCI   5
6HR MIN TEMP:  17; 6HR MAX TEMP:  23; 6HR PCP: TRACE;

MT CARMEL AP   MOCLDY    27  14  59 N10       30.31R WCI  17
OLNEY-NOBLE AP MOCLDY    21  12  68 NW13      30.33R WCI   9
PARIS          CLOUDY    17   9  70 N7        30.32R WCI   8
6HR MIN TEMP:  17; 6HR MAX TEMP:  24;

PEORIA         CLOUDY    13   5  70 N5        30.40R HAZE    WCI   5
6HR MIN TEMP:  13; 6HR MAX TEMP:  20; 6HR PCP: TRACE;

PONTIAC        MOCLDY    13   4  67 N12       30.36R WCI   0
RANTOUL        MOCLDY    18  10  71 N8        30.32R WCI   8
6HR MIN TEMP:  18; 6HR MAX TEMP:  23;

ROBINSON       PTCLDY    20  12  71 NW8       30.33R WCI  11
6HR MIN TEMP:  20; 6HR MAX TEMP:  26;

SPRINGFIELD    LGT SNOW  16   8  71 NW15      30.38R WCI   1
6HR MIN TEMP:  16; 6HR MAX TEMP:  21; 6HR PCP: TRACE;

TAYLORVILLE    LGT SNOW  18  12  79 NW10      30.36R WCI   6
$$

...REGIONAL REPORTS...


CITY           SKY/WX    TMP DP  RH WIND       PRES   REMARKS
CHICAGO O`HARE PTCLDY    11  -4  51 NW10      30.32R WCI  -3
KANKAKEE       MOCLDY    16   3  58 NW7       30.33R WCI   6
MOLINE         CLEAR      9  -3  58 NW15      30.41R WCI  -8
MOUNT VERNON   MOCLDY    21  10  63 N5        30.34R WCI  15
PITTSFIELD     PTCLDY    13   1  58 NW12      30.43R WCI  -1
QUINCY         CLEAR      9  -3  58 NW13      30.43R WCI  -7
ROCKFORD       CLEAR     10  -5  50 N7        30.38R WCI  -1
$$


CITY           SKY/WX    TMP DP  RH WIND       PRES   REMARKS
BURLINGTON     CLEAR      7  -3  64 NW9       30.44R WCI  -7
CEDAR RAPIDS   CLEAR      2  -5  72 NW13      30.43R WCI -15
DES MOINES     PTCLDY     7  -6  55 NW14      30.50R WCI -10
KIRKSVILLE     CLEAR     10  -2  58 N9        30.45R WCI  -3
OTTUMWA        CLEAR      4  -6  63 NW14      30.47R WCI -14
ST LOUIS       MOCLDY    20   8  60 NW14      30.39R WCI   7
$$


CITY           SKY/WX    TMP DP  RH WIND       PRES   REMARKS
TERRE HAUTE    CLOUDY    19  11  70 N13       30.30R WCI   6
EVANSVILLE     MOCLDY    26  13  57 N13G21    30.30R WCI  15
INDIANAPOLIS   MOCLDY    17   8  67 NW9       30.26R WCI   6
LAFAYETTE      CLEAR     13   3  64 N6        30.30R WCI   4
MADISON        PTCLDY    10  -6  48 NW6       30.35R WCI   0
MILWAUKEE      PTCLDY    11  -6  46 NW9       30.34R WCI  -2
$$





USA.gov is the U.S. government's official web portal to all federal, state and local government web resources and services.